Location: Ash Swamp
(41.5170°N, 74.6157°W)
Time: 01:00:51
(UTC+00:00)

CZ-4C R/B - Pass Details

Date: 14 July 2020
Orbit: 632 x 1370 km, 63.4° (Epoch: 14 August)

Event Time Altitude Azimuth Distance (km) Brightness Sun altitude
Rises 03:43:27 0° 326° (NW) 3,844 6.9 -24.1°
Reaches altitude 10° 03:45:59 10° 329° (NNW) 2,985 6.1 -24.3°
Maximum altitude 03:53:16 67° 52° (NE) 1,343 3.2 -24.8°
Enters shadow 03:56:50 36° 122° (ESE) 1,932 3.6 -25.0°
